Flag for Canada Weather past 2 weeks in Fort Simpson, Northwest Territories, Canada

Now
61 °F

Broken clouds.


Feels Like: 61 °F
Forecast: 52 / 73 °F
Wind: 2 mph from North

Location: Fort Simpson

Current Time: Aug 1, 2015 at 10:56:02 AM

Latest Report: Aug 1, 2015 at 10:00 AM


Visibility: 15 mi

Pressure: 29.99 "Hg

Humidity: 83%

Dew point: 55 °F

Location of Fort SimpsonLocation

Historic Weather in Fort Simpson — Graph

°F

Fort Simpson temperature yesterday

Maximum temperature yesterday: 73 °F (at 5:00 PM)
Minimum temperature yesterday: 50 °F (at 6:00 AM)
Average temperature yesterday: 63 °F

Past Weeks' High & Low Weather Summary

 TemperatureHumidityPressure
High81 °F (Jul 17, 7:00 PM)100% (Jul 24, 3:00 AM)30.02 "Hg (Jul 24, 3:00 AM)
Low46 °F (Jul 24, 5:00 AM)32% (Jul 17, 7:00 PM)29.61 "Hg (Jul 18, 3:00 AM)
Average62 °F72%29.79 "Hg
* Reported Jul 17 10:00 AM — Aug 1 10:00 AM, Fort Simpson, Weather by CustomWeather, © 2015

Note: Actual official high and low records may vary slightly from our data, if they occured in-between our weather recording intervals... More about our weather records

Advertising

Fort Simpson weather history for previous 24 hours

 ConditionsComfort  
Time TempWeatherWind HumidityBarometerVisibility
10:00 AM
Sat, Aug 1
61 °FBroken clouds.2 mph83%29.99 "Hg15 mi
9:00 AM57 °FPartly sunny.2 mph88%29.99 "Hg15 mi
8:00 AM57 °FPartly sunny.3 mph88%29.99 "Hg15 mi
7:00 AM54 °FBroken clouds.2 mph94%29.99 "Hg15 mi
6:00 AM52 °FPassing clouds.No wind94%29.97 "Hg15 mi
5:00 AM54 °FPassing clouds.No wind88%29.97 "Hg15 mi
4:00 AM52 °FPassing clouds.2 mph88%29.97 "Hg15 mi
3:00 AM54 °FPassing clouds.No wind88%29.96 "Hg15 mi
2:00 AM55 °FPassing clouds.No wind82%29.97 "Hg15 mi
1:00 AM61 °FPassing clouds.2 mph68%29.96 "Hg15 mi
12:00 AM61 °FPartly cloudy.3 mph72%29.96 "Hg15 mi
11:00 PM
Fri, Jul 31
64 °FBroken clouds.3 mph60%29.96 "Hg15 mi
10:00 PM64 °FBroken clouds.6 mph64%29.95 "Hg15 mi
9:00 PM68 °FPartly sunny.2 mph56%29.94 "Hg15 mi
8:00 PM73 °FBroken clouds.3 mph38%29.93 "Hg15 mi
7:00 PM73 °FBroken clouds.3 mph41%29.93 "Hg15 mi
6:00 PM73 °FBroken clouds.3 mph47%29.94 "Hg15 mi
5:00 PM73 °FBroken clouds.3 mph47%29.95 "Hg15 mi
4:00 PM72 °FBroken clouds.2 mph47%29.95 "Hg15 mi
3:00 PM72 °FBroken clouds.6 mph50%29.96 "Hg15 mi
2:00 PM72 °FPartly sunny.6 mph53%29.96 "Hg15 mi
1:00 PM70 °FScattered clouds.No wind53%29.98 "Hg15 mi
12:00 PM68 °FScattered clouds.7 mph60%29.99 "Hg15 mi
11:00 AM66 °FScattered clouds.7 mph64%30.00 "Hg15 mi
10:00 AM63 °FPassing clouds.6 mph73%30.00 "Hg15 mi
Weather by CustomWeather, © 2015

See weather overviewHow to use our weather pages